Tracking 23758 objects as of 28-Oct-2021
HD Live streaming from Space Station
objects crossing your sky now

POLAR SCOUT YUKON

Track POLAR SCOUT YUKON now!
10-day predictions


NORAD ID: 43808
Int'l Code: 2018-099BC
Perigee: 577.8 km
Apogee: 593.7 km
Inclination: 97.7 °
Period: 96.2 minutes
Semi major axis: 6956 km
RCS: Unknown
Launch date: December 3, 2018
Source: United States (US)
Launch site: AIR FORCE WESTERN TEST RANGE (AFWTR)
aabbcc
Your satellite tracking list
Your tracking list is empty




NASA's NSSDC Master Catalog

Two Line Element Set (TLE):
1 43808U 18099BC  21300.19696212  .00001169  00000-0  10862-3 0  9999
2 43808  97.6547   8.5750 0011426 341.2624  18.8175 14.96220282157890
Source of the keplerian elements: AFSPC